Find Local Weather

World > North America > United States > New York

Mohawk, New York Regional Weather

Lat: 43.01N, Lon: 75.01W
Wx Zone: NYZ038
Feedback
Expires:201806250800;;078153
ASUS41 KGYX 250710
RWRGYX
WEATHER ROUNDUP FOR MAINE AND NEW HAMPSHIRE
NATIONAL WEATHER SERVICE GRAY ME
300 AM EDT MON JUN 25 2018


MAZ007-012-024-CTZ003-RIZ002-NYZ038-NYZ072-250800-
SOUTHERN NEW ENGLAND AND NY
  
CITY           SKY/WX    TMP DP  RH WIND       PRES   REMARKS
BOSTON         LGT RAIN  67  64  90 N9        29.76R VSB 1/2          
WORCESTER      LGT RAIN  63  62  97 NW10      29.80R                  
NANTUCKET      FOG       63  63 100 W7        29.74S VSB 1/2          
PROVIDENCE     FAIR      68  67  96 W5        29.75F                  
HARTFORD       LGT RAIN  65  63  93 N8        29.82R                  
ALBANY         CLOUDY    64  61  90 N5        29.89R                  
NEW YORK CITY  FAIR      71  63  75 NW15      29.81R                  
$$


SKY/WX - Weather  TMP - Temperature  DP - Dewpoint  RH - Relative Humidity
WIND - Wind Direction/Speed PRES - Barometric Pressure